Location: Dal�� Lhota
(48.7500°N, 14.0167°E)
Time: 22:34:17
(UTC+00:00)

NOSS 5 (C) - Pass Details

Date: 24 September 2020
Orbit: 377 x 1731 km, 63.3° (Epoch: 25 October)

Event Time Altitude Azimuth Distance (km) Brightness Sun altitude
Rises 18:08:25 0° 320° (NW) 2,267 8.9 -12.5°
Reaches altitude 10° 18:10:19 10° 324° (NW) 1,448 7.7 -12.8°
Maximum altitude 18:13:23 63° 47° (NE) 497 4.4 -13.3°
Enters shadow 18:15:27 23° 123° (ESE) 1,072 5.7 -13.7°
